Weather reports worldwide

Advertisment
Redesdale Camp, United Kingdom (3230): temperature & dewpoint: 16.08.2019 19:00:00 - 22.08.2019 19:00:00 (BST)Redesdale Camp, United Kingdom (3230): temperature -20cm & temperature -100cm: 16.08.2019 19:00:00 - 22.08.2019 19:00:00 (BST)Redesdale Camp, United Kingdom (3230): wind speed & gusts: 16.08.2019 19:00:00 - 22.08.2019 19:00:00 (BST)Redesdale Camp, United Kingdom (3230): wind direction: 16.08.2019 19:00:00 - 22.08.2019 19:00:00 (BST)Redesdale Camp, United Kingdom (3230): reduced air pressure: 16.08.2019 19:00:00 - 22.08.2019 19:00:00 (BST)Redesdale Camp, United Kingdom (3230): visibility: 16.08.2019 19:00:00 - 22.08.2019 19:00:00 (BST)Redesdale Camp, United Kingdom (3230): precipitation: 16.08.2019 19:00:00 - 22.08.2019 19:00:00 (BST)
Date & Time tt [°C] td [°C] tt -20cm [°C] tt -100cm [°C] ff [km/h] ff [kn] fx [km/h] fx [kn] dd ppp [hPa] vv [km] rr [mm]
22.08.2019 19:00:00 15,5 14,9 - - 21 11 - - SW 1015,6 2,3 0,2
22.08.2019 18:00:00 15,4 14,7 - - 24 13 - - SW 1015,3 2,0 0,6
22.08.2019 17:00:00 15,0 14,1 - - 15 8 - - SW 1015,8 5 0,6
22.08.2019 16:00:00 14,9 14,0 - - 18 10 - - SW 1016,1 30 0,4
22.08.2019 15:00:00 13,9 13,4 - - 13 7 - - SSW 1016,3 4,6 0,4
22.08.2019 14:00:00 13,1 12,1 - - 16 9 - - SSW 1016,8 6 0,0
22.08.2019 13:00:00 14,4 11,2 - - 24 13 - - SW 1016,6 24 0,0
22.08.2019 12:00:00 15,8 12,3 - - 22 12 - - SW 1016,3 75 0,0
22.08.2019 11:00:00 15,9 12,7 - - 24 13 - - SW 1016,1 75 0,0
22.08.2019 10:00:00 13,0 11,7 16,0 15,2 13 7 - - SW 1016,7 2,7 0,0
22.08.2019 09:00:00 13,5 11,3 - - 16 9 - - SW 1016,4 75 0,0
22.08.2019 08:00:00 13,0 11,4 - - 13 7 - - SW 1016,4 60 0,0
22.08.2019 07:00:00 12,7 11,4 - - 13 7 - - SW 1016,1 50 0,0
22.08.2019 06:00:00 12,8 11,5 - - 16 9 - - SW 1016,0 45 0,0
22.08.2019 05:00:00 12,6 11,6 - - 11 6 - - SW 1016,0 35 0,0
22.08.2019 04:00:00 12,7 11,6 - - 9 5 - - WSW 1016,4 40 0,0
22.08.2019 03:00:00 12,8 11,9 - - 11 6 - - SW 1016,1 40 0,0
22.08.2019 02:00:00 12,6 12,1 - - 15 8 - - SSW 1016,2 24 0,6
22.08.2019 01:00:00 12,7 12,2 - - 16 9 - - SSW 1016,4 28 1,4
22.08.2019 00:00:00 12,4 12,0 - - 15 8 - - SSW 1016,7 2,6 1,0
21.08.2019 23:00:00 12,0 11,6 - - 15 8 - - S 1017,2 8 0,8
21.08.2019 22:00:00 11,9 11,2 - - 18 10 - - SSW 1017,6 11 1,0
21.08.2019 21:00:00 12,3 11,0 - - 15 8 - - SSW 1018,0 12 0,2
21.08.2019 20:00:00 13,9 10,7 - - 16 9 - - SSW 1018,0 60 0,0
21.08.2019 19:00:00 14,4 10,5 - - 21 11 - - SSW 1018,0 65 0,2
21.08.2019 18:00:00 15,5 11,0 - - 22 12 - - SSW 1018,3 70 0,0
21.08.2019 17:00:00 14,3 12,4 - - 21 11 - - SSW 1019,4 75 0,6
21.08.2019 16:00:00 16,2 10,1 - - 22 12 - - SSW 1019,4 75 0,0
21.08.2019 15:00:00 16,7 10,8 - - 18 10 - - SSW 1019,9 70 0,0
21.08.2019 14:00:00 17,2 10,4 - - 22 12 - - SW 1020,2 75 0,0
21.08.2019 13:00:00 17,4 10,9 - - 24 13 - - SW 1020,6 75 0,0
21.08.2019 12:00:00 16,8 11,0 - - 21 11 - - SW 1021,2 75 0,0
21.08.2019 11:00:00 15,8 10,5 - - 21 11 - - SW 1021,2 75 0,0
21.08.2019 10:00:00 15,7 11,8 16,2 15,2 18 10 - - SW 1021,7 65 0,0
21.08.2019 09:00:00 13,4 13,3 - - 5 3 - - SSE 1022,2 35 0,0
21.08.2019 08:00:00 9,4 9,4 - - 4 2 - - SSE 1022,6 20 0,0
21.08.2019 07:00:00 7,7 7,6 - - 2 1 - - E 1022,5 17 0,0
21.08.2019 06:00:00 6,7 6,5 - - 5 3 - - N 1022,5 13 0,0
21.08.2019 05:00:00 6,8 6,5 - - 5 3 - - N 1022,5 17 0,0
21.08.2019 04:00:00 7,6 7,1 - - 4 2 - - N 1022,6 24 0,0
21.08.2019 03:00:00 8,2 7,9 - - 5 3 - - WNW 1022,9 22 0,0
21.08.2019 02:00:00 7,2 6,6 - - 2 1 - - W 1023,1 19 0,0
21.08.2019 01:00:00 7,9 7,4 - - 4 2 - - NNW 1023,1 21 0,0
21.08.2019 00:00:00 8,2 7,5 - - 2 1 - - ENE 1022,9 23 0,0
20.08.2019 23:00:00 8,3 7,7 - - 4 2 - - W 1022,8 24 0,0
20.08.2019 22:00:00 9,9 8,7 - - 4 2 - - NW 1022,5 28 0,0
20.08.2019 21:00:00 10,4 8,2 - - 2 1 - - NNW 1022,4 30 0,0
20.08.2019 20:00:00 12,3 7,7 - - 8 4 - - WSW 1021,8 40 0,0
20.08.2019 19:00:00 13,9 8,0 - - 21 11 - - SW 1021,1 35 0,0
20.08.2019 18:00:00 15,1 9,6 - - 21 11 - - SW 1020,5 40 0,0
20.08.2019 17:00:00 14,9 9,9 - - 18 10 - - SW 1020,2 45 0,0
20.08.2019 16:00:00 15,1 10,5 - - 18 10 - - WSW 1020,0 55 0,0
20.08.2019 15:00:00 14,6 11,7 - - 15 8 - - WSW 1019,6 75 0,0
20.08.2019 14:00:00 13,7 12,1 - - 9 5 - - WSW 1019,0 75 0,4
20.08.2019 13:00:00 15,5 10,7 - - 8 4 - - W 1018,3 - 0,0
20.08.2019 12:00:00 14,4 11,0 - - 8 4 - - W 1018,1 - 0,0
20.08.2019 11:00:00 16,0 10,9 - - 11 6 - - WSW 1017,3 - 0,0
20.08.2019 10:00:00 14,0 10,4 16,2 15,2 8 4 - - WSW 1017,1 - 0,0
20.08.2019 09:00:00 12,5 10,7 - - 8 4 - - WSW 1016,7 - 0,0
20.08.2019 08:00:00 11,7 10,3 - - 5 3 - - WSW 1016,2 - 0,0
20.08.2019 07:00:00 11,1 10,1 - - 4 2 - - W 1015,5 - 0,0
20.08.2019 06:00:00 11,0 9,8 - - 5 3 - - W 1014,7 - 0,0
20.08.2019 05:00:00 11,2 9,9 - - 9 5 - - WSW 1014,1 - 0,0
20.08.2019 04:00:00 11,2 10,0 - - 9 5 - - WSW 1013,4 - 0,0
20.08.2019 03:00:00 11,2 10,1 - - 8 4 - - WSW 1013,0 - 0,0
20.08.2019 02:00:00 11,3 9,9 - - 8 4 - - WSW 1012,8 - 0,0
20.08.2019 01:00:00 10,9 9,5 - - 8 4 - - WSW 1012,3 21 0,0
20.08.2019 00:00:00 10,7 9,4 - - 4 2 - - W 1012,3 - 0,0
19.08.2019 23:00:00 10,4 9,6 - - 5 3 - - W 1012,1 - 0,0
19.08.2019 22:00:00 10,3 9,1 - - 5 3 - - W 1011,7 - 0,0
19.08.2019 21:00:00 11,2 9,5 - - 4 2 - - WNW 1011,1 - 0,0
19.08.2019 20:00:00 12,0 9,9 - - 11 6 - - SW 1010,4 - 0,0
19.08.2019 19:00:00 13,3 10,8 - - 11 6 - - WSW 1009,8 - 0,0
19.08.2019 18:00:00 12,8 11,0 - - 15 8 - - SW 1009,5 - 0,4
19.08.2019 17:00:00 14,7 11,6 - - 16 9 - - SW 1009,2 - 0,0
19.08.2019 16:00:00 14,9 11,4 - - 18 10 - - SW 1008,8 - 0,2
19.08.2019 15:00:00 14,1 10,4 - - 18 10 - - WSW 1008,6 - 0,2
19.08.2019 14:00:00 16,1 9,8 - - 22 12 - - SW 1007,7 - 0,0
19.08.2019 13:00:00 14,4 9,6 - - 24 13 - - SW 1007,6 - 0,0
19.08.2019 12:00:00 14,5 9,4 - - 21 11 - - SW 1006,9 - 0,0
19.08.2019 11:00:00 14,5 10,0 - - 21 11 - - SW 1006,3 - 0,0
19.08.2019 10:00:00 13,6 10,5 16,2 15,4 16 9 - - WSW 1005,7 - 0,0
19.08.2019 09:00:00 12,6 10,0 - - 16 9 - - WSW 1005,1 - 0,0
19.08.2019 08:00:00 12,3 10,4 - - 13 7 - - WSW 1004,4 - 0,0
19.08.2019 07:00:00 11,6 10,4 - - 11 6 - - WSW 1003,9 - 0,0
19.08.2019 06:00:00 11,3 10,1 - - 8 4 - - WSW 1003,1 - 0,0
19.08.2019 05:00:00 11,7 10,8 - - 8 4 - - W 1002,6 - 0,0
19.08.2019 04:00:00 11,9 10,7 - - 11 6 - - WSW 1002,4 - 0,0
19.08.2019 03:00:00 11,6 10,5 - - 9 5 - - SW 1002,0 - 0,0
19.08.2019 02:00:00 11,3 10,5 - - 5 3 - - W 1001,9 - 0,0
19.08.2019 01:00:00 11,4 10,5 - - 5 3 - - WSW 1001,5 - 0,0
19.08.2019 00:00:00 11,9 10,9 - - 9 5 - - WSW 1000,9 - 0,0
18.08.2019 23:00:00 12,4 11,5 - - 13 7 - - SW 1000,3 - 0,2
18.08.2019 22:00:00 12,7 11,9 - - 15 8 - - SW 999,8 - 0,0
18.08.2019 21:00:00 11,0 10,3 - - 11 6 - - SW 999,5 - 0,0
18.08.2019 20:00:00 11,3 10,0 - - 9 5 - - WSW 999,0 - 0,0
18.08.2019 19:00:00 11,7 10,3 - - 21 11 - - SW 998,4 - 3,8
18.08.2019 18:00:00 13,7 11,1 - - 21 11 - - SW 997,5 - 0,0
18.08.2019 17:00:00 14,9 12,2 - - 21 11 - - SW 997,0 - 0,4
18.08.2019 16:00:00 15,3 11,2 - - 26 14 48 26 SW 996,7 - 0,2
18.08.2019 15:00:00 13,1 11,2 - - 24 13 57 31 SW 996,7 - 0,2
18.08.2019 14:00:00 14,2 10,9 - - 24 13 48 26 SW 996,1 - 0,0
18.08.2019 13:00:00 15,1 12,6 - - 24 13 52 28 SW 995,6 - 0,0
18.08.2019 12:00:00 13,2 11,5 - - 29 16 50 27 SW 995,5 - 0,8
18.08.2019 11:00:00 12,4 11,2 - - 22 12 46 25 SW 995,1 - 0,6
18.08.2019 10:00:00 13,4 10,5 16,4 15,4 24 13 - - SW 994,8 - 0,0
18.08.2019 09:00:00 13,5 9,9 - - 24 13 - - SSW 994,9 - 0,0
18.08.2019 08:00:00 11,6 9,6 - - 15 8 - - SSW 995,6 - 0,2
18.08.2019 07:00:00 11,7 9,0 - - 16 9 - - SSW 995,7 - 0,0
18.08.2019 06:00:00 10,9 8,9 - - 16 9 - - SSW 996,0 - 0,0
18.08.2019 05:00:00 11,4 9,5 - - 16 9 - - SSW 996,1 - 0,0
18.08.2019 04:00:00 11,6 9,5 - - 16 9 - - SW 996,3 - 0,0
18.08.2019 03:00:00 12,3 10,3 - - 18 10 - - SSW 996,7 - 0,0
18.08.2019 02:00:00 11,7 10,3 - - 11 6 - - S 997,2 - 0,0
18.08.2019 01:00:00 11,6 10,2 - - 13 7 - - S 997,5 - 0,0
18.08.2019 00:00:00 10,7 9,3 - - 9 5 - - SSW 997,5 - 0,0
17.08.2019 23:00:00 11,6 9,8 - - 9 5 - - S 997,7 - 0,0
17.08.2019 22:00:00 12,8 9,8 - - 9 5 - - S 998,1 - 0,0
17.08.2019 21:00:00 13,5 9,7 - - 9 5 - - S 997,8 - 0,0
17.08.2019 20:00:00 14,5 9,3 - - 15 8 54 29 SSW 997,8 - 0,0
17.08.2019 19:00:00 14,9 9,1 - - 24 13 46 25 SW 997,5 - 0,0
17.08.2019 18:00:00 15,3 8,9 - - 26 14 50 27 SW 997,5 - 0,0
17.08.2019 17:00:00 16,2 9,0 - - 26 14 - - SW 997,7 - 0,0
17.08.2019 16:00:00 15,7 9,2 - - 22 12 46 25 SW 997,7 - 0,0
17.08.2019 15:00:00 16,4 7,3 - - 26 14 57 31 SW 997,5 - 0,0
17.08.2019 14:00:00 15,9 9,4 - - 31 17 57 31 SW 996,9 - 0,0
17.08.2019 13:00:00 15,7 9,3 - - 34 18 55 30 SW 996,7 - 0,0
17.08.2019 12:00:00 14,9 9,2 - - 26 14 61 33 SW 996,6 - 0,0
17.08.2019 11:00:00 16,0 10,6 - - 15 8 - - SW 996,5 - 0,0
17.08.2019 10:00:00 14,0 11,1 16,4 15,4 13 7 - - SW 996,5 - 0,0
17.08.2019 09:00:00 13,8 10,8 - - 15 8 - - WSW 996,1 - 0,0
17.08.2019 08:00:00 13,2 11,3 - - 13 7 - - WSW 995,7 - 0,0
17.08.2019 07:00:00 12,6 11,6 - - 9 5 - - WSW 994,8 - 3,2
17.08.2019 06:00:00 13,0 12,3 - - 16 9 - - SSW 993,7 - 1,0
17.08.2019 05:00:00 12,6 11,6 - - 8 4 - - SW 994,2 - 0,2
17.08.2019 04:00:00 13,2 12,2 - - 18 10 - - SW 994,4 - 1,2
17.08.2019 03:00:00 13,5 12,7 - - 9 5 - - SW 994,5 - 1,0
17.08.2019 02:00:00 13,8 12,7 - - 15 8 - - SW 994,3 - 0,0
17.08.2019 01:00:00 13,6 12,5 - - 13 7 - - WSW 994,4 - 0,0
17.08.2019 00:00:00 14,6 13,4 - - 15 8 - - SW 994,3 - 0,0
16.08.2019 23:00:00 15,7 14,8 - - 21 11 - - SW 994,2 - 1,2
16.08.2019 22:00:00 15,4 15,1 - - 9 5 - - S 994,1 - 3,8
16.08.2019 21:00:00 15,4 14,8 - - 8 4 - - SE 995,0 - 0,0
16.08.2019 20:00:00 15,5 14,4 - - 9 5 - - S 995,4 - 0,0
16.08.2019 19:00:00 16,2 14,6 - - 16 9 - - S 996,3 - 0,0

tt = temperature
td = dewpoint
tt -20cm = temperature -20cm
tt -100cm = temperature -100cm
ff = wind speed
fx = gusts
dd = wind direction
ppp = reduced air pressure
vv = visibility
rr = precipitation

Next stations